Location: Mahannah Oil Field
(37.4664°N, 96.6003°W)
Time: 14:40:56
(UTC+00:00)

Vanguard 2 Rocket - Pass Details

Date: 28 January 2021
Orbit: 554 x 3325 km, 32.9° (Epoch: 06 March)

Event Time Altitude Azimuth Distance (km) Brightness Sun altitude
Rises 19:57:54 0° 239° (WSW) 7,275 12.2 31.6°
Reaches altitude 10° 20:03:09 10° 236° (WSW) 6,125 12.1 31.2°
Maximum altitude 20:21:01 59° 164° (SSE) 2,692 10.2 29.6°
Drops below altitude 10° 20:31:58 10° 88° (E) 3,943 9.9 28.6°
Sets 20:34:34 0° 85° (E) 4,629 10.2 28.3°
